Location: Newark
(35.2672°N, 80.7344°W)
Time: 14:40:28
(UTC+00:00)

Vanguard 2 Rocket - Pass Details

Date: 22 January 2020
Orbit: 553 x 3327 km, 32.9° (Epoch: 28 February)

Event Time Altitude Azimuth Distance (km) Brightness Sun altitude
Rises 10:13:55 0° 228° (SW) 2,762 - -27.3°
Reaches altitude 10° 10:16:03 10° 218° (SW) 1,963 - -26.9°
Exits shadow 10:18:42 29° 184° (S) 1,266 7.6 -26.4°
Maximum altitude 10:19:59 34° 152° (SSE) 1,219 7.8 -26.1°
Drops below altitude 10° 10:25:36 10° 90° (E) 2,824 10.5 -25.0°
Sets 10:29:17 0° 82° (E) 4,213 11.6 -24.2°
